Weather History for Chadron, NE

Change the Weather History Date:

Sunday, May 12, 2013

  Actual Average Record
Temperature  
Mean Temperature 59 °F 55 °F  
Max Temperature 81 °F 70 °F 88 °F (1915)
Min Temperature 36 °F 40 °F 21 °F (1953)
Degree Days  
Heating Degree Days 6 11  
Month to date heating degree days 183 154  
Since 1 July heating degree days 6734 6917  
Cooling Degree Days 0 0  
Month to date cooling degree days 0 0  
Year to date cooling degree days 0 2  
Growing Degree Days 8 (Base 50)    
Moisture  
Dew Point 35 °F    
Average Humidity 51    
Maximum Humidity 82    
Minimum Humidity 20    
Precipitation  
Precipitation 0.00 in 0.08 in 2.15 in (1942)
Month to date precipitation 0.01 1.00  
Year to date precipitation 4.82 5.18  
Sea Level Pressure  
Sea Level Pressure 30.06 in    
Wind  
Wind Speed 5 mph (SSE)    
Max Wind Speed 14 mph    
Max Gust Speed 16 mph    
Visibility 10 miles    
Events      
T = Trace of Precipitation, MM = Missing Value Source: NWS Daily Summary

Daily Weather History Graph

Daily Weather History Graph

Search for Another Location

Airport:

Trip Planner

Search our weather history database for the weather conditions in past years. The results will help you decide how hot, cold, wet, or windy it might be!

Date:

Astronomy

May. 12, 2013 Rise Set
Actual Time 5:32 AM MDT 8:05 PM MDT
Civil Twilight 5:00 AM MDT 8:37 PM MDT
Nautical Twilight 4:20 AM MDT 9:18 PM MDT
Astronomical Twilight 3:34 AM MDT 10:04 PM MDT
Moon 7:28 AM MDT (5/12) 10:34 PM MDT (5/12)
Length of Visible Light 15h 37m
Length of Day
14h 33m
Waxing Crescent, 7% of the Moon is Illuminated
May 12
Waxing Crescent
May 17
First Quarter
May 24
Full
May 31
Last Quarter
Jun 8
New

Hourly Weather History & Observations

Time (MDT) Temp. Windchill Dew Point Humidity Pressure Visibility Wind Dir Wind Speed Gust Speed Precip Events Conditions
12:53 AM 44.1 °F - 30.9 °F 60% 30.17 in 10.0 mi Calm Calm - N/A   Clear
1:53 AM 44.1 °F 41.5 °F 34.0 °F 68% 30.17 in 10.0 mi West 4.6 mph - N/A   Mostly Cloudy
2:53 AM 42.1 °F 38.4 °F 34.0 °F 73% 30.15 in 10.0 mi South 5.8 mph - N/A   Mostly Cloudy
3:53 AM 39.0 °F 34.8 °F 30.9 °F 73% 30.15 in 10.0 mi SW 5.8 mph - N/A   Partly Cloudy
4:53 AM 36.0 °F 30.3 °F 30.0 °F 79% 30.16 in 10.0 mi SW 6.9 mph - N/A   Clear
5:53 AM 36.0 °F 31.1 °F 30.0 °F 79% 30.14 in 10.0 mi South 5.8 mph - N/A   Clear
7:53 AM 48.9 °F - 33.1 °F 54% 30.16 in 10.0 mi WSW 5.8 mph - N/A   Clear
8:53 AM 53.1 °F - 32.0 °F 45% 30.15 in 10.0 mi Calm Calm - N/A   Clear
9:53 AM 59.0 °F - 33.1 °F 38% 30.14 in 10.0 mi Variable 3.5 mph - N/A   Clear
10:53 AM 64.9 °F - 35.1 °F 33% 30.11 in 10.0 mi Calm Calm - N/A   Clear
11:53 AM 69.1 °F - 35.1 °F 29% 30.10 in 10.0 mi Calm Calm - N/A   Clear
12:53 PM 73.0 °F - 36.0 °F 26% 30.07 in 10.0 mi NE 3.5 mph - N/A   Clear
1:53 PM 75.9 °F - 37.0 °F 24% 30.05 in 10.0 mi Variable 5.8 mph - N/A   Clear
2:53 PM 78.1 °F - 37.0 °F 23% 30.02 in 10.0 mi NNE 5.8 mph - N/A   Clear
3:53 PM 78.1 °F - 37.0 °F 23% 30.00 in 10.0 mi South 3.5 mph - N/A   Clear
4:53 PM 81.0 °F - 36.0 °F 20% 29.98 in 10.0 mi NNE 4.6 mph - N/A   Clear
5:53 PM 79.0 °F - 37.9 °F 23% 29.97 in 10.0 mi East 4.6 mph - N/A   Clear
6:53 PM 75.9 °F - 41.0 °F 29% 29.95 in 10.0 mi East 9.2 mph - N/A   Clear
7:53 PM 72.0 °F - 39.9 °F 31% 29.96 in 10.0 mi ESE 9.2 mph - N/A   Clear
8:53 PM 69.1 °F - 39.0 °F 33% 29.97 in 10.0 mi ESE 8.1 mph - N/A   Clear
9:53 PM 66.9 °F - 37.0 °F 33% 29.96 in 10.0 mi SE 12.7 mph - N/A   Clear
10:53 PM 66.9 °F - 35.1 °F 31% 29.95 in 10.0 mi SSE 12.7 mph - N/A   Clear
11:53 PM 66.9 °F - 35.1 °F 31% 29.94 in 10.0 mi Calm Calm - N/A   Clear